• In United Kingdom
  • List of Countries
  • For 7 days
  • Water Temperature
  • Satellite Maps
  • Weather Map
  • Weather Widgets
  • user-avatar
    Login

    Hourly Weather Carlisle

    Today, 24 July, Monday

    Time Temperature Precipitation Wind Pressure Humidity
    00:00 +13°C° 0 mm 4 mps 758 mmHg 95%
    01:00 +13°C° 0 mm 4 mps 758 mmHg 95%
    02:00 +13°C° 0 mm 4 mps 758 mmHg 95%
    03:00 +13°C° 0 mm 4 mps 758 mmHg 95%
    04:00 +13°C° 0 mm 4 mps 759 mmHg 94%
    05:00 +13°C° 0 mm 4 mps 759 mmHg 94%
    06:00 +13°C° 0 mm 4 mps 759 mmHg 93%
    07:00 +14°C° 0 mm 4 mps 759 mmHg 91%
    08:00 +15°C° 0 mm 4 mps 759 mmHg 88%
    09:00 +15°C° 0 mm 4 mps 760 mmHg 86%
    10:00 +15°C° 0 mm 4 mps 760 mmHg 84%
    11:00 +17°C° 0 mm 4 mps 760 mmHg 83%
    12:00 +17°C° 0 mm 4 mps 760 mmHg 81%
    13:00 +18°C° 0 mm 4 mps 760 mmHg 80%
    14:00 +18°C° 0 mm 3 mps 761 mmHg 79%
    15:00 +19°C° 0 mm 3 mps 761 mmHg 78%
    16:00 +19°C° 0 mm 3 mps 761 mmHg 79%
    17:00 +19°C° 0 mm 3 mps 761 mmHg 80%
    18:00 +19°C° 0 mm 2 mps 761 mmHg 81%
    19:00 +18°C° 0 mm 2 mps 761 mmHg 85%
    20:00 +16°C° 0 mm 2 mps 761 mmHg 89%
    21:00 +15°C° 0 mm 1 mps 762 mmHg 93%
    22:00 +14°C° 0 mm 1 mps 762 mmHg 93%
    23:00 +14°C° 0 mm 1 mps 762 mmHg 94%

    Tomorrow, 25 July, Tuesday

    Time Temperature Precipitation Wind Pressure Humidity
    00:00 +13°C° 0 mm 1 mps 762 mmHg 94%
    01:00 +13°C° 0 mm 1 mps 761 mmHg 95%
    02:00 +13°C° 0 mm 1 mps 761 mmHg 95%
    03:00 +12°C° 0 mm 1 mps 761 mmHg 95%
    04:00 +13°C° 0 mm 1 mps 761 mmHg 94%
    05:00 +13°C° 0 mm 1 mps 761 mmHg 93%
    06:00 +14°C° 0 mm 1 mps 761 mmHg 93%
    07:00 +15°C° 0 mm 1 mps 761 mmHg 88%
    08:00 +16°C° 0 mm 1 mps 760 mmHg 84%
    09:00 +19°C° 0 mm 1 mps 760 mmHg 79%
    10:00 +20°C° 0 mm 1 mps 760 mmHg 76%
    11:00 +21°C° 0 mm 1 mps 760 mmHg 74%
    12:00 +22°C° 0 mm 1 mps 759 mmHg 71%
    13:00 +22°C° 0.1 mm 1 mps 759 mmHg 72%
    14:00 +22°C° 0.1 mm 1 mps 759 mmHg 73%
    15:00 +21°C° 0.1 mm 2 mps 758 mmHg 74%
    16:00 +21°C° 0.2 mm 2 mps 758 mmHg 77%
    17:00 +20°C° 0.2 mm 2 mps 758 mmHg 80%
    18:00 +20°C° 0.2 mm 2 mps 757 mmHg 82%
    19:00 +19°C° 0.1 mm 2 mps 757 mmHg 86%
    20:00 +17°C° 0.1 mm 2 mps 757 mmHg 90%
    21:00 +16°C° 0.1 mm 2 mps 757 mmHg 94%
    22:00 +15°C° 0 mm 2 mps 756 mmHg 95%
    23:00 +15°C° 0 mm 2 mps 756 mmHg 95%

    Day after tomorrow, 26 July, Wednesday

    Time Temperature Precipitation Wind Pressure Humidity
    00:00 +14°C° 0 mm 2 mps 755 mmHg 95%
    01:00 +14°C° 0 mm 2 mps 755 mmHg 94%
    02:00 +14°C° 0 mm 2 mps 754 mmHg 92%
    03:00 +12°C° 0 mm 3 mps 754 mmHg 91%
    04:00 +13°C° 0.3 mm 3 mps 753 mmHg 91%
    05:00 +14°C° 0.3 mm 4 mps 752 mmHg 92%
    06:00 +14°C° 0.3 mm 4 mps 751 mmHg 93%
    07:00 +14°C° 2.7 mm 5 mps 751 mmHg 93%
    08:00 +15°C° 2.7 mm 6 mps 750 mmHg 94%
    09:00 +15°C° 2.7 mm 6 mps 750 mmHg 94%
    10:00 +16°C° 0.6 mm 6 mps 749 mmHg 95%
    11:00 +16°C° 0.6 mm 6 mps 749 mmHg 95%
    12:00 +17°C° 0.6 mm 6 mps 749 mmHg 95%
    13:00 +17°C° 0.2 mm 6 mps 749 mmHg 92%
    14:00 +17°C° 0.2 mm 6 mps 749 mmHg 90%
    15:00 +19°C° 0.2 mm 6 mps 749 mmHg 88%
    16:00 +17°C° 0.1 mm 6 mps 749 mmHg 86%
    17:00 +16°C° 0.1 mm 6 mps 749 mmHg 85%
    18:00 +16°C° 0.1 mm 6 mps 750 mmHg 83%
    19:00 +15°C° 0 mm 5 mps 750 mmHg 86%
    20:00 +14°C° 0 mm 4 mps 751 mmHg 89%
    21:00 +12°C° 0 mm 4 mps 751 mmHg 91%
    22:00 +12°C° 0 mm 3 mps 752 mmHg 92%
    23:00 +11°C° 0 mm 3 mps 752 mmHg 92%

    27 July, Thursday

    Time Temperature Precipitation Wind Pressure Humidity
    00:00 +11°C° 0 mm 3 mps 752 mmHg 93%
    01:00 +11°C° 0 mm 3 mps 752 mmHg 93%
    02:00 +10°C° 0 mm 2 mps 752 mmHg 93%
    03:00 +10°C° 0 mm 2 mps 752 mmHg 93%
    04:00 +11°C° 0.1 mm 3 mps 752 mmHg 93%
    05:00 +11°C° 0.1 mm 3 mps 752 mmHg 92%
    06:00 +12°C° 0.1 mm 3 mps 752 mmHg 91%
    07:00 +13°C° 0.1 mm 4 mps 752 mmHg 87%
    08:00 +14°C° 0.1 mm 4 mps 752 mmHg 83%
    09:00 +15°C° 0.1 mm 5 mps 752 mmHg 78%
    10:00 +15°C° 0.2 mm 5 mps 752 mmHg 76%
    11:00 +16°C° 0.2 mm 6 mps 752 mmHg 73%
    12:00 +17°C° 0.2 mm 6 mps 752 mmHg 70%
    13:00 +17°C° 0.1 mm 6 mps 752 mmHg 69%
    14:00 +17°C° 0.1 mm 6 mps 752 mmHg 68%
    15:00 +17°C° 0.1 mm 6 mps 752 mmHg 67%
    16:00 +16°C° 0.1 mm 6 mps 752 mmHg 71%
    17:00 +16°C° 0.1 mm 5 mps 752 mmHg 75%
    18:00 +15°C° 0.1 mm 4 mps 752 mmHg 79%
    19:00 +14°C° 0.4 mm 4 mps 752 mmHg 83%
    20:00 +13°C° 0.4 mm 4 mps 752 mmHg 88%
    21:00 +12°C° 0.4 mm 4 mps 752 mmHg 92%
    22:00 +12°C° 0.2 mm 4 mps 752 mmHg 93%
    23:00 +12°C° 0.2 mm 4 mps 752 mmHg 94%

    28 July, Friday

    Time Temperature Precipitation Wind Pressure Humidity
    00:00 +12°C° 0.2 mm 4 mps 752 mmHg 95%
    01:00 +12°C° 0.1 mm 4 mps 752 mmHg 95%
    02:00 +12°C° 0.1 mm 4 mps 753 mmHg 95%
    03:00 +12°C° 0.1 mm 4 mps 753 mmHg 94%
    04:00 +12°C° 0.1 mm 4 mps 753 mmHg 94%
    05:00 +12°C° 0.1 mm 4 mps 753 mmHg 93%
    06:00 +12°C° 0.1 mm 4 mps 753 mmHg 93%
    07:00 +13°C° 0.2 mm 5 mps 754 mmHg 89%
    08:00 +14°C° 0.2 mm 6 mps 754 mmHg 86%
    09:00 +15°C° 0.2 mm 6 mps 754 mmHg 82%
    10:00 +15°C° 0.2 mm 6 mps 754 mmHg 80%
    11:00 +16°C° 0.2 mm 7 mps 755 mmHg 77%
    12:00 +16°C° 0.2 mm 7 mps 755 mmHg 74%
    13:00 +16°C° 0.1 mm 7 mps 755 mmHg 74%
    14:00 +16°C° 0.1 mm 7 mps 755 mmHg 73%
    15:00 +16°C° 0.1 mm 6 mps 756 mmHg 73%
    16:00 +16°C° 0 mm 6 mps 756 mmHg 76%
    17:00 +16°C° 0 mm 5 mps 756 mmHg 79%
    18:00 +15°C° 0 mm 4 mps 756 mmHg 82%
    19:00 +15°C° 0.7 mm 5 mps 756 mmHg 86%
    20:00 +15°C° 0.7 mm 5 mps 756 mmHg 90%
    21:00 +14°C° 0.7 mm 5 mps 755 mmHg 93%
    22:00 +15°C° 0.5 mm 6 mps 755 mmHg 93%
    23:00 +15°C° 0.5 mm 7 mps 755 mmHg 93%

    29 July, Saturday

    Time Temperature Precipitation Wind Pressure Humidity
    00:00 +15°C° 0.5 mm 7 mps 754 mmHg 94%
    01:00 +16°C° 0.1 mm 8 mps 754 mmHg 93%
    02:00 +16°C° 0.1 mm 8 mps 753 mmHg 93%
    03:00 +16°C° 0.1 mm 8 mps 753 mmHg 92%
    04:00 +16°C° 0.3 mm 8 mps 753 mmHg 92%
    05:00 +16°C° 0.3 mm 9 mps 753 mmHg 92%
    06:00 +16°C° 0.3 mm 9 mps 752 mmHg 91%
    07:00 +16°C° 0.2 mm 9 mps 753 mmHg 91%
    08:00 +16°C° 0.2 mm 8 mps 753 mmHg 91%
    09:00 +16°C° 0.2 mm 8 mps 753 mmHg 91%
    10:00 +17°C° 0.1 mm 7 mps 753 mmHg 89%
    11:00 +17°C° 0.1 mm 7 mps 754 mmHg 88%
    12:00 +17°C° 0.1 mm 6 mps 754 mmHg 86%
    13:00 +17°C° 0.1 mm 6 mps 754 mmHg 83%
    14:00 +19°C° 0.1 mm 6 mps 755 mmHg 79%
    15:00 +19°C° 0.1 mm 6 mps 755 mmHg 76%
    16:00 +17°C° 0 mm 6 mps 755 mmHg 77%
    17:00 +17°C° 0 mm 5 mps 756 mmHg 78%
    18:00 +17°C° 0 mm 5 mps 756 mmHg 79%
    19:00 +15°C° 0 mm 4 mps 756 mmHg 84%
    20:00 +14°C° 0 mm 4 mps 757 mmHg 88%
    21:00 +13°C° 0 mm 3 mps 757 mmHg 93%
    22:00 +12°C° 0 mm 3 mps 757 mmHg 94%
    23:00 +12°C° 0 mm 3 mps 757 mmHg 94%
    Show more